Strona główna
METAR-TAF:

METAR-TAF

Lotnisko :

Leconfield, Anglia

Szerokość geograficzna: 53-52-37N, Długość geograficzna: 0-26-15W, wysokość: 7 m

Aktualna obserwacja pogody

Raport powstał 50 minut temu, godzina 15:50 UTC
Wiatr 3 kt od zachodnio-południowy zachód
Temperatura 7°C
Wilgotność 87%
Ciśnienie 1012 hPa
Widzialność 10 km lub więcej

METAR: EGXV 251550Z AUTO 25003KT 9999 FEW060/// 07/05 Q1012

czas: 16:40 (16:40 UTC)


TAF: brakujący

Obserwacja i prognoza pogody dla ponad 4000 lotnisk (raport METAR i TAF).

Dostępne stacje oznaczono żółtymi i czerwonymi punktami na mapie.

Najedź kursorem aby zobaczyć nazwę stacji.

Kliknij aby zobaczyć obserwacje i prognozy pogody.

Aby zmienić mapę: kliknij na zielony przycisk z czarnym krzyżykiem, aby powiększyć; na zielony przycisk z myślnikiem, aby pomniejszyć; na zielone strzałki, aby przejść do map sąsiednich.


METAR-TAF: